• In United Kingdom
  • List of Countries
  • For 7 days
  • Water Temperature
  • Satellite Maps
  • Weather Map
  • Weather Widgets
  • user-avatar
    Login

    Hourly Weather Shkoder

    Today, 24 June, Saturday

    Time Temperature Precipitation Wind Pressure Humidity
    00:00 +18°C° 0 mm 0 mps 741 mmHg 82%
    01:00 +18°C° 0 mm 0 mps 741 mmHg 82%
    02:00 +18°C° 0 mm 0 mps 741 mmHg 81%
    03:00 +18°C° 0 mm 0 mps 741 mmHg 81%
    04:00 +20°C° 0 mm 1 mps 741 mmHg 80%
    05:00 +23°C° 0 mm 1 mps 741 mmHg 72%
    06:00 +25°C° 0 mm 1 mps 741 mmHg 65%
    07:00 +28°C° 0 mm 1 mps 741 mmHg 57%
    08:00 +30°C° 0 mm 1 mps 741 mmHg 51%
    09:00 +32°C° 0 mm 1 mps 741 mmHg 44%
    10:00 +34°C° 0 mm 1 mps 741 mmHg 38%
    11:00 +35°C° 0.2 mm 1 mps 741 mmHg 38%
    12:00 +36°C° 0.2 mm 2 mps 741 mmHg 38%
    13:00 +36°C° 0.2 mm 2 mps 741 mmHg 38%
    14:00 +36°C° 0.3 mm 2 mps 741 mmHg 40%
    15:00 +35°C° 0.3 mm 2 mps 740 mmHg 41%
    16:00 +35°C° 0.3 mm 2 mps 740 mmHg 43%
    17:00 +31°C° 0.1 mm 2 mps 740 mmHg 53%
    18:00 +29°C° 0.1 mm 1 mps 740 mmHg 63%
    19:00 +26°C° 0.1 mm 1 mps 740 mmHg 73%
    20:00 +25°C° 0.1 mm 1 mps 740 mmHg 73%
    21:00 +24°C° 0.1 mm 1 mps 740 mmHg 72%
    22:00 +24°C° 0.1 mm 1 mps 741 mmHg 72%
    23:00 +23°C° 0.1 mm 1 mps 741 mmHg 72%

    Tomorrow, 25 June, Sunday

    Time Temperature Precipitation Wind Pressure Humidity
    00:00 +23°C° 0.1 mm 1 mps 740 mmHg 73%
    01:00 +22°C° 0.1 mm 1 mps 740 mmHg 74%
    02:00 +22°C° 0 mm 1 mps 740 mmHg 75%
    03:00 +22°C° 0 mm 1 mps 740 mmHg 75%
    04:00 +21°C° 0 mm 1 mps 740 mmHg 76%
    05:00 +24°C° 0 mm 1 mps 740 mmHg 70%
    06:00 +26°C° 0 mm 1 mps 740 mmHg 63%
    07:00 +29°C° 0 mm 1 mps 740 mmHg 57%
    08:00 +31°C° 0 mm 1 mps 740 mmHg 51%
    09:00 +33°C° 0 mm 1 mps 740 mmHg 44%
    10:00 +35°C° 0 mm 1 mps 740 mmHg 38%
    11:00 +35°C° 0.2 mm 1 mps 739 mmHg 38%
    12:00 +36°C° 0.2 mm 2 mps 739 mmHg 38%
    13:00 +37°C° 0.2 mm 3 mps 739 mmHg 39%
    14:00 +36°C° 0.4 mm 2 mps 738 mmHg 40%
    15:00 +35°C° 0.4 mm 2 mps 738 mmHg 42%
    16:00 +35°C° 0.4 mm 2 mps 738 mmHg 44%
    17:00 +31°C° 0.1 mm 2 mps 737 mmHg 53%
    18:00 +28°C° 0.1 mm 1 mps 737 mmHg 63%
    19:00 +26°C° 0.1 mm 1 mps 737 mmHg 73%
    20:00 +24°C° 0 mm 1 mps 737 mmHg 75%
    21:00 +23°C° 0 mm 1 mps 738 mmHg 78%
    22:00 +22°C° 0 mm 1 mps 738 mmHg 80%
    23:00 +21°C° 0 mm 1 mps 738 mmHg 81%

    Day after tomorrow, 26 June, Monday

    Time Temperature Precipitation Wind Pressure Humidity
    00:00 +21°C° 0 mm 1 mps 738 mmHg 82%
    01:00 +18°C° 0 mm 0 mps 738 mmHg 82%
    02:00 +20°C° 0 mm 1 mps 738 mmHg 82%
    03:00 +20°C° 0 mm 1 mps 738 mmHg 82%
    04:00 +20°C° 0 mm 1 mps 738 mmHg 82%
    05:00 +23°C° 0 mm 1 mps 738 mmHg 73%
    06:00 +26°C° 0 mm 1 mps 738 mmHg 65%
    07:00 +29°C° 0 mm 1 mps 739 mmHg 57%
    08:00 +30°C° 0.1 mm 1 mps 739 mmHg 51%
    09:00 +32°C° 0.1 mm 1 mps 739 mmHg 46%
    10:00 +34°C° 0.1 mm 1 mps 739 mmHg 40%
    11:00 +35°C° 0.4 mm 2 mps 739 mmHg 40%
    12:00 +36°C° 0.4 mm 2 mps 738 mmHg 39%
    13:00 +36°C° 0.4 mm 2 mps 738 mmHg 38%
    14:00 +36°C° 0.5 mm 2 mps 738 mmHg 40%
    15:00 +35°C° 0.5 mm 2 mps 738 mmHg 42%
    16:00 +34°C° 0.5 mm 2 mps 738 mmHg 44%
    17:00 +31°C° 0.3 mm 2 mps 738 mmHg 54%
    18:00 +28°C° 0.3 mm 1 mps 738 mmHg 64%
    19:00 +26°C° 0.3 mm 1 mps 738 mmHg 74%
    20:00 +25°C° 0.4 mm 1 mps 738 mmHg 75%
    21:00 +24°C° 0.4 mm 1 mps 739 mmHg 77%
    22:00 +23°C° 0.4 mm 1 mps 739 mmHg 78%
    23:00 +23°C° 0.2 mm 1 mps 739 mmHg 78%

    27 June, Tuesday

    Time Temperature Precipitation Wind Pressure Humidity
    00:00 +23°C° 0.2 mm 1 mps 739 mmHg 78%
    01:00 +23°C° 0.2 mm 1 mps 739 mmHg 79%
    02:00 +22°C° 0 mm 1 mps 739 mmHg 79%
    03:00 +22°C° 0 mm 1 mps 739 mmHg 80%
    04:00 +21°C° 0 mm 2 mps 739 mmHg 80%
    05:00 +24°C° 0 mm 1 mps 739 mmHg 74%
    06:00 +26°C° 0 mm 1 mps 739 mmHg 69%
    07:00 +28°C° 0 mm 1 mps 739 mmHg 63%
    08:00 +30°C° 0.1 mm 1 mps 739 mmHg 56%
    09:00 +32°C° 0.1 mm 1 mps 739 mmHg 48%
    10:00 +34°C° 0.1 mm 1 mps 739 mmHg 41%
    11:00 +35°C° 0.2 mm 1 mps 739 mmHg 39%
    12:00 +36°C° 0.2 mm 2 mps 739 mmHg 37%
    13:00 +37°C° 0.2 mm 2 mps 738 mmHg 35%
    14:00 +36°C° 0.1 mm 2 mps 738 mmHg 35%
    15:00 +36°C° 0.1 mm 2 mps 738 mmHg 36%
    16:00 +35°C° 0.1 mm 2 mps 738 mmHg 37%
    17:00 +31°C° 0 mm 2 mps 738 mmHg 47%
    18:00 +28°C° 0 mm 1 mps 738 mmHg 58%
    19:00 +25°C° 0 mm 1 mps 738 mmHg 69%
    20:00 +24°C° 0 mm 1 mps 738 mmHg 72%
    21:00 +23°C° 0 mm 1 mps 738 mmHg 75%
    22:00 +21°C° 0 mm 1 mps 738 mmHg 78%
    23:00 +21°C° 0 mm 1 mps 738 mmHg 78%

    28 June, Wednesday

    Time Temperature Precipitation Wind Pressure Humidity
    00:00 +21°C° 0 mm 1 mps 738 mmHg 79%
    01:00 +21°C° 0 mm 1 mps 738 mmHg 79%
    02:00 +20°C° 0 mm 1 mps 738 mmHg 79%
    03:00 +20°C° 0 mm 1 mps 738 mmHg 79%
    04:00 +20°C° 0 mm 1 mps 738 mmHg 80%
    05:00 +23°C° 0 mm 1 mps 738 mmHg 69%
    06:00 +26°C° 0 mm 1 mps 738 mmHg 58%
    07:00 +29°C° 0 mm 1 mps 739 mmHg 48%
    08:00 +31°C° 0 mm 1 mps 739 mmHg 43%
    09:00 +33°C° 0 mm 1 mps 738 mmHg 38%
    10:00 +35°C° 0 mm 2 mps 738 mmHg 33%
    11:00 +36°C° 0 mm 2 mps 738 mmHg 33%
    12:00 +36°C° 0 mm 2 mps 738 mmHg 33%
    13:00 +37°C° 0 mm 3 mps 737 mmHg 33%
    14:00 +36°C° 0 mm 3 mps 737 mmHg 34%
    15:00 +36°C° 0 mm 2 mps 737 mmHg 35%
    16:00 +35°C° 0 mm 2 mps 737 mmHg 37%
    17:00 +31°C° 0 mm 2 mps 737 mmHg 48%
    18:00 +28°C° 0 mm 1 mps 737 mmHg 60%
    19:00 +26°C° 0 mm 1 mps 737 mmHg 71%
    20:00 +24°C° 0 mm 1 mps 737 mmHg 73%
    21:00 +23°C° 0 mm 1 mps 738 mmHg 76%
    22:00 +21°C° 0 mm 1 mps 738 mmHg 78%
    23:00 +21°C° 0 mm 1 mps 738 mmHg 78%

    29 June, Thursday

    Time Temperature Precipitation Wind Pressure Humidity
    00:00 +21°C° 0 mm 1 mps 738 mmHg 77%
    01:00 +20°C° 0 mm 1 mps 737 mmHg 77%
    02:00 +20°C° 0 mm 1 mps 737 mmHg 76%
    03:00 +20°C° 0 mm 1 mps 737 mmHg 76%
    04:00 +20°C° 0 mm 1 mps 737 mmHg 75%
    05:00 +23°C° 0 mm 1 mps 737 mmHg 65%
    06:00 +27°C° 0 mm 1 mps 738 mmHg 55%
    07:00 +30°C° 0 mm 1 mps 738 mmHg 45%
    08:00 +32°C° 0 mm 1 mps 738 mmHg 40%
    09:00 +33°C° 0 mm 1 mps 738 mmHg 35%
    10:00 +36°C° 0 mm 2 mps 738 mmHg 30%
    11:00 +37°C° 0 mm 2 mps 738 mmHg 29%
    12:00 +38°C° 0 mm 3 mps 738 mmHg 27%
    13:00 +38°C° 0 mm 3 mps 737 mmHg 26%
    14:00 +38°C° 0 mm 3 mps 737 mmHg 28%
    15:00 +37°C° 0 mm 3 mps 737 mmHg 30%
    16:00 +36°C° 0 mm 2 mps 737 mmHg 32%
    17:00 +32°C° 0 mm 2 mps 737 mmHg 43%
    18:00 +29°C° 0 mm 2 mps 737 mmHg 54%
    19:00 +26°C° 0 mm 2 mps 737 mmHg 65%
    20:00 +25°C° 0 mm 2 mps 737 mmHg 66%
    21:00 +24°C° 0 mm 2 mps 737 mmHg 67%
    22:00 +23°C° 0 mm 1 mps 738 mmHg 69%
    23:00 +23°C° 0 mm 1 mps 738 mmHg 67%
    Show more